www.pogodaiklimat.ru

Погода и климат >> Архив погоды >> Россия >> Приморский край >> Рудная Пристань


АРХИВ ПОГОДЫ в Рудной Пристани

Время (UTC), дата Ветер
(напр.,м/с)
 
Видим.   Явления Облачность Т
(С)
Тd
(С)
f
(%)
Тe
(С)
Тes
(С)
Комфортность P
(гПа)
Po
(гПа)
Тmin
(С)
Tmax
(С)
R
(мм)
R24
(мм)
S
(см)
09 12.03 В 1 20 км 10/8 600 м
[Sc As op]
+0.5 -3.5 75 -1 -1 1005.7 1001.5 +2.8
12 12.03 СВ 2 20 км 10/8 600 м
[Cb cap As op]
+0.3 -3.5 76 -3 -3 1006.9 1002.7
15 12.03 СВ 2 20 км 10/8 600 м
[Cb cap As op]
0.0 -2.2 85 -4 -4 1006.4 1002.2
18 12.03 СВ 2 4000 м слаб. ливневой снег 10/8 300 м
[Cb cap As op]
-1.0 -1.8 94 -5 -5 1005.2 1001.1
21 12.03 В 2 4000 м слаб. ливневой снег 10/8 300 м
[Cb cap As op]
-1.4 -1.9 96 -5 -5 1004.3 1000.1 -1.4 4 6
00 13.03 В 3 4000 м слаб. ливневой снег 10/8 300 м
[Cb cap As trans]
-0.4 -3.2 81 -5 -5 1004.0 999.8
03 13.03 В 5 20 км {ливн. осадки} 10/6 600 м
[Cb cap Ac trans Ci sp]
+0.9 -3.6 72 -5 -4 1002.6 998.5
06 13.03 В 4
{11}
20 км {ливн. осадки} 10/8 600 м
[Cb cap As trans]
-0.2 -4.3 74 -5 -5 1002.5 998.3
09 13.03 В 1 20 км 10/8 600 м
[Cb cap As op]
-0.8 -3.6 81 -3 -3 1004.8 1000.6 +1.7 0.3
12 13.03 штиль 0 4000 м слаб. ливневой снег 10/8 300 м
[Cb cap As op]
-1.6 -2.8 92 -3 -3 1006.8 1002.6
15 13.03 штиль 0 20 км в посл. час ливневой снег 10/8 600 м
[Cb cap As op]
-2.2 -2.9 95 -4 -4 1007.5 1003.3
18 13.03 З 2 20 км {ливн. осадки} 8/6 600 м
[Cb cap Ac trans]
-2.0 -3.6 89 -6 -6 1008.1 1003.9
21 13.03 штиль 0 20 км 6/3 600 м
[Cb cap Ac lent Ci sp]
-0.4 -7.9 57 -1 -1 1010.5 1006.3 -3.0 2 3
00 14.03 ЮЗ 2 20 км 10/4 600 м
[Sc diur, vesp Ci sp]
+1.9 -7.3 50 -1 +2 1012.2 1008.0
03 14.03 З 4
{12}
20 км 8/4 600 м
[Cb cap Ci fib]
+5.0 -8.9 36 +2 +6 1012.6 1008.5
06 14.03 В 2 20 км 8/8 600 м
[Cb cap]
+3.3 -4.3 57 +1 +2 1013.2 1009.1
09 14.03 З 2 20 км 4/4 600 м
[Cb cap]
+3.2 -8.4 42 +1 +1 1015.1 1011.0 +5.9
12 14.03 СЗ 1 20 км 3/3 600 м
[Sc diur, vesp]
+1.7 -6.1 56 +1 +1 1017.0 1012.8
15 14.03 СЗ 3 20 км ясно -0.0 -6.7 61 -4 -4 1017.2 1013.0
18 14.03 З 2 20 км 3/0
[Ac lent]
-3.7 -7.5 75 -8 -8 1017.0 1012.7
21 14.03 З 3 20 км 3/0
[Ac lent]
-6.7 -8.9 84 -12 -12 1017.0 1012.7 -6.9
00 15.03 ЮЗ 3 20 км 4/0
[Ac lent Ci sp]
-0.7 -6.2 66 -5 -2 1016.8 1012.6
03 15.03 ЮВ 4 20 км 9/6 600 м
[Cb cap Ac trans Cs]
+2.3 -5.2 58 -2 -0 1015.7 1011.5
06 15.03 ЮВ 4 20 км 4/1 600 м
[Sc diur, vesp Ci sp]
+2.3 -2.8 69 -2 +1 1014.3 1010.1
09 15.03 В 1 20 км 8/8 600 м
[Cb cap]
+1.0 -1.5 83 -1 -1 1014.1 1009.9 +3.4
12 15.03 штиль 0 20 км 4/4 600 м
[Cb cap]
-0.7 -3.2 83 -2 -2 1014.4 1010.2
15 15.03 З 2 20 км ясно -3.3 -4.6 91 -7 -7 1013.7 1009.4
18 15.03 З 3 20 км ясно -1.8 -5.3 77 -7 -7 1013.3 1009.1
21 15.03 З 3 20 км 8/8 600 м
[Cb cap]
-0.5 -6.7 63 -5 -5 1014.1 1009.9 -5.4
00 16.03 З 1 20 км 8/4 600 м
[Sc diur, vesp Ac lent Ci sp]
+3.0 -6.6 49 +2 +5 1014.3 1010.2
03 16.03 В 2 20 км 8/8 600 м
[Cb cap]
+1.9 -4.0 65 -1 +1 1013.9 1009.7
06 16.03 ЮВ 2 20 км 6/6 600 м
[Cb cap]
+2.1 -2.1 74 -1 +1 1013.2 1009.0
09 16.03 З 2 20 км 6/6 600 м
[Cb cap]
+0.8 -5.2 64 -2 -2 1014.2 1010.0 +4.1
12 16.03 З 2 20 км 4/4 600 м
[Sc diur, vesp]
-0.7 -7.5 60 -4 -4 1016.0 1011.8
15 16.03 З 1 20 км 1/0
[Ac lent]
-2.6 -8.8 62 -4 -4 1016.3 1012.0
18 16.03 З 3 20 км ясно -5.4 -9.9 71 -11 -11 1016.2 1011.9
21 16.03 З 2 20 км ясно -4.2 -10.1 63 -8 -8 1016.3 1012.0 -6.4
00 17.03 ЮЗ 3 50 км ясно +1.7 -10.3 40 -2 +3 1016.9 1012.7
03 17.03 ЮВ 4 20 км 3/1 600 м
[Cu hum Ci sp]
+3.9 -6.9 45 0 +7 1015.4 1011.3
06 17.03 З 5 20 км 4/3 600 м
[Cu med, cong Ac lent]
+8.0 -14.2 19 +5 +7 1013.6 1009.5
09 17.03 З 2
{10}
20 км 1/1 600 м
[Cu hum]
+5.9 -14.0 22 +5 +5 1014.1 1010.0 +8.4
12 17.03 штиль 0 20 км ясно -0.7 -11.2 45 -1 -1 1015.4 1011.2
15 17.03 З 2 20 км 3/0
[Ac lent]
-4.5 -11.1 60 -8 -8 1015.4 1011.1
18 17.03 З 3 20 км 1/0
[Ac lent]
-5.8 -10.7 68 -11 -11 1014.5 1010.3
21 17.03 З 1 20 км 1/0
[Ci sp]
-6.4 -11.5 67 -9 -9 1013.7 1009.4 -6.6
00 18.03 ЮЗ 2 20 км 6/0
[Ac lent Ci sp]
+2.7 -8.5 43 0 +5 1012.7 1008.6
03 18.03 ЮВ 2 20 км 9/0
[Ac lent Ci]
+5.8 -5.6 44 +4 +11 1008.9 1004.8
06 18.03 ЮВ 5 20 км 3/0
[Ac lent]
+4.2 -0.2 73 -1 +2 1004.6 1000.6
09 18.03 В 2 20 км 4/0
[Ac lent Ci sp]
+4.4 -1.5 65 +2 +2 1003.1 999.0 +6.8
12 18.03 штиль 0 20 км ясно +0.8 -2.9 76 -0 -0 1004.5 1000.4
15 18.03 З 2 20 км 3/0
[Ci fib]
+1.3 -2.9 74 -2 -2 1005.0 1000.9
18 18.03 штиль 0 20 км 6/0
[Ci sp]
+0.3 -5.4 66 -0 -0 1005.5 1001.3
21 18.03 З 3 20 км 3/1 600 м
[Sc Ci sp]
+1.1 -6.5 57 -3 -3 1007.1 1002.9 -1.9
00 19.03 З 1 20 км 10/4 600 м
[Sc Cs]
+7.7 -3.7 44 +8 +11 1009.7 1005.6
03 19.03 ЮВ 2 20 км 8/3 600 м
[Sc Cc]
+12.3 -6.3 27 +12 +19 1009.2 1005.2
06 19.03 ЮВ 2 20 км 3/0
[Ci fib]
+11.2 -5.1 31 +11 +16 1008.9 1004.9

 

Местоположение метеостанции Рудная Пристань (Приморский край, Россия): широта 44.37 долгота 135.80 высота над уровнем моря 34 м.

В архиве по умолчанию представлена погода в Рудной Пристани за последнюю неделю. Архивные данные за месяц целиком и за предыдущие месяцы, начиная с января 2011 года, Вы можете получить, выбрав интересующий диапазон дат из раскрывающегося списка и нажав кнопку "Ввод!".


*Определитесь, кто Вы:
робот инопланетянин человек

Внимание! Время в таблицах - всемирное. Для получения местного времени необходимо прибавить поправку, которая равна 10 ч.

Смотрите также архив погоды в соседних городах и на ближайших метеорологических станциях:

Погода в Богополе (Приморский край, Россия) (35 км)
Погода в Кавалерово (Приморский край, Россия) (65 км)
Погода в Ольге (Приморский край, Россия) (80 км)
Погода в Дальнегорске (Приморский край, Россия) (93 км)
Погода в Тернее (Приморский край, Россия) (94 км)
Погода в Мельничном (Приморский край, Россия) (122 км)
Погода в Лучегорске (Приморский край, Россия) (151 км)
Погода в Малой Кеме (Приморский край, Россия) (154 км)
Погода в Чугуевке (Приморский край, Россия) (161 км)
Погода в Малиново (Приморский край, Россия) (172 км)

Пояснения к столбцам:

Ветер - указаны скорость ветра в м/с - средняя за 10 мин, порывы в срок и между сроками (в фигурных скобках) и направление, откуда дует ветер: С - северный, СВ - северо-восточный, В - восточный, ЮВ - юго-восточный, Ю - южный, ЮЗ - юго-западный, З - западный, СЗ - северо-западный.
Видимость - горизонтальная дальность видимости в метрах или километрах. При видимости от 1 до 10 км при отсутствии осадков обычно наблюдается дымка, при ухудшении видимости до 1 км и менее - туман. В сухую погоду видимость может ухудшаться дымом, пылью или мглою.
Явления - указаны атмосферные явления, наблюдавшиеся в срок или в последний час перед сроком; фигурными скобками обозначены явления, наблюдавшиеся между сроками (за 1-3 часа до срока); квадратными скобками обозначены град или гололедные отложения с указанием их диаметра в мм.
Облачность - указаны через наклонную черту общая и нижняя облачность в баллах и высота нижней границы облаков в метрах; квадратными скобками обозначены формы облаков: Ci - перистые, Cs - перисто-слоистые, Cc - перисто-кучевые, Ac - высококучевые, As - высокослоистые, Sc - слоисто-кучевые, Ns - слоисто-дождевые, Cu - кучевые, Cb - кучево-дождевые. Подробнее классификацию облаков см. в Атласе облаков (PDF).
T - Температура воздуха - температура, измеренная на высоте 2 м над землей.
Td - Температура точки росы - температура, при понижении до которой содержащийся в воздухе водяной пар достигнет насыщения.
f - Относительная влажность воздуха - влажноcть воздуха, измеренная на высоте 2 м над землей.
Te - Эффективная температура - температура, которую ощущает одетый по сезону человек в тени. Характеристика душности погоды. При расчете учитывается влияние влажности воздуха и скорости ветра на теплоощущения человека.
Tes - Эффективная температура на солнце - температура, которую ощущает человек, с поправкой на солнечный нагрев. Характеристика знойности погоды. Зависит от высоты солнца над горизонтом, облачности и скорости ветра. Ночью, в пасмурную погоду, а также при ветре 12 м/с и более поправка равна нулю.
P - Атмосферное давление - приведенное к уровню моря атмосферное давление.
Po - Атмосферное давление - измеренное на уровне метеостанции атмосферное давление.
Tmin - Минимальная температура - минимум температуры воздуха на высоте 2 м над землей.
Tmax - Максимальная температура - максимум температуры воздуха на высоте 2 м над землей.
R - Количество осадков - Количество выпавших осадков за период времени, мм. При наведении курсора мыши на число - период времени, за который выпало указанное количество осадков.
R24 - Количество осадков - Количество выпавших осадков за 24 часа, мм.
S - Снежный покров - Высота снежного покрова, см. При наведении курсора мыши на число - состояние снежного покрова и степень покрытия местности в баллах.